Regional Weather Roundup
Issued by NWS Spokane, WA

Home | Current Version | Previous Version | Text Only | Print | Product List | Glossary On
Versions: 1 2 3 4 5 6 7 8 9 10 11 12 13 14 15 16 17 18 19 20 21 22 23 24 25 26 27 28 29 30 31 32 33 34 35 36 37 38 39 40 41 42 43 44 45 46 47 48 49 50
000
NZUS01 KOTX 050510
RWROTX
EASTERN WASHINGTON/NORTHERN IDAHO ROUNDUP
NATIONAL WEATHER SERVICE, SPOKANE WA
1000 PM PDT SAT JUL 04 2015

Note: "fair" indicated few or no clouds below 12,000 feet with no
significant weather and/or obstructions to visibility.

...NORTHEAST WASHINGTON AND NORTHERN IDAHO PANHANDLE...

CITY           SKY/WX    TMP DP  RH WIND       PRES   REMARKS
SPOKANE INTL   PTCLDY    87  36  16 N10       29.73R
SPOKANE DOWNTO CLEAR     87  44  22 N9G18     29.71R
COEUR D ALENE  MOCLDY    81  54  39 NE6       29.72R
DEER PARK      CLEAR     77  41  27 N6        29.74R
SANDPOINT      PTCLDY    79  46  31 E6        29.72R
BONNERS FERRY  FAIR      81  39  22 N13       29.75R

...SOUTHEAST WASHINGTON AND SOUTHERN IDAHO PANHANDLE...

CITY           SKY/WX    TMP DP  RH WIND       PRES   REMARKS
WALLA WALLA    MOCLDY    88  44  21 SE8       29.68R
PULLMAN/MOSCOW PTCLDY    75  44  33 CALM      29.78R
LEWISTON       PTCLDY    90  41  18 W7        29.67R
LOWELL           N/A     74  57  55 CALM      29.72R

...COLUMBIA BASIN...

CITY           SKY/WX    TMP DP  RH WIND       PRES   REMARKS
EPHRATA        CLEAR     89  37  16 N20G26    29.66R
MOSES LAKE     PTCLDY    89  39  17 N14       29.66R
TRI CITIES     MOCLDY    94  48  20 S7        29.61R HX  90
HERMISTON      MOCLDY    87  51  28 SW9       29.64R
PENDLETON      MOCLDY    85  39  19 W10       29.71R

...EAST SLOPES CASCADES...

CITY           SKY/WX    TMP DP  RH WIND       PRES   REMARKS
THE DALLES     MOCLDY    90  45  21 W13G25    29.67R
YAKIMA         PTCLDY    89  38  16 N10G20    29.71R
ELLENSBURG     PTCLDY    79  35  20 NW13      29.75R
WENATCHEE      CLEAR     90  39  16 W12       29.71R
OMAK           PTCLDY    84  30  14 N17G29    29.77R

...SOUTHERN BRITISH COLUMBIA...

CITY           SKY/WX    TMP DP  RH WIND       PRES   REMARKS
PENTICTON      PTCLDY    79  36  21 N7        29.85R
CRANBROOK      MOCLDY    79  28  15 N7        29.83R

...WESTERN MONTANA...

CITY           SKY/WX    TMP DP  RH WIND       PRES   REMARKS
MISSOULA       MOCLDY    77  36  22 NW5       29.80R

...NEIGHBORING CITIES...

CITY           SKY/WX    TMP DP  RH WIND       PRES   REMARKS
SEATTLE        PTCLDY    81  42  25 N6        29.80R
CALGARY        CLOUDY    55  43  62 NW10G17   30.14R



USA.gov is the U.S. government's official web portal to all federal, state and local government web resources and services.